Location: Igon
(43.1667°N, 0.2333°W)
Time: 21:23:10
(UTC+00:00)

ERS-2 - Pass Details

Date: 29 November 2020
Orbit: 492 x 498 km, 98.6° (Epoch: 20 January)

Event Time Altitude Azimuth Distance (km) Brightness Sun altitude
Rises 05:50:30 0° 203° (SSW) 2,563 5.7 -14.4°
Reaches altitude 10° 05:53:09 10° 225° (SW) 1,688 4.5 -13.9°
Enters shadow 05:54:23 15° 243° (WSW) 1,424 4.0 -13.7°
